Location: Newark
(50.4348°N, 30.5552°E)
Time: 18:05:57
(UTC+00:00)

Altair - Pass Details

Date: 24 January 2020
Orbit: 1502 x 1682 km, 47.2° (Epoch: 22 February)

Event Time Altitude Azimuth Distance (km) Brightness Sun altitude
Rises 12:25:36 0° 286° (WNW) 4,940 10.4 14.1°
Reaches altitude 10° 12:28:56 10° 281° (W) 3,945 10.0 13.9°
Maximum altitude 12:38:25 47° 212° (SSW) 2,089 9.3 13.0°
Drops below altitude 10° 12:47:39 10° 143° (SE) 3,842 9.8 12.1°
Sets 12:50:51 0° 137° (SE) 4,802 10.2 11.8°
